Oak Ridge, TN

5:35 AM EST on February 25, 2017 (GMT -0500)
Oak Ridge

Weather History for KOQT - November, 2012

Change the Weather History Date:

Tuesday, November 6, 2012

  Actual Average (KTYS) Record (KTYS)
Temperature  
Mean Temperature 48 °F -  
Max Temperature 51 °F 58 °F 79 °F (2005)
Min Temperature 44 °F 38 °F 25 °F (1991)
Degree Days  
Heating Degree Days 18    
Moisture  
Dew Point 41 °F    
Average Humidity 77    
Maximum Humidity 93    
Minimum Humidity 66    
Precipitation  
Precipitation 0.04 in - - ()
Sea Level Pressure  
Sea Level Pressure 30.00 in    
Wind  
Wind Speed 0 mph (SSE)    
Max Wind Speed 5 mph    
Max Gust Speed -    
Visibility 10 miles    
Events Rain    
Averages and records for this station are not official NWS values.
T = Trace of Precipitation, MM = Missing Value Source: NWS Daily Summary

Daily Weather History Graph

Daily Weather History Graph

Search for Another Location

Airport or City:

Trip Planner

Search our weather history database for the weather conditions in past years. The results will help you decide how hot, cold, wet, or windy it might be!

Date:

Astronomy

Nov. 06, 2012 Rise Set
Actual Time 7:04 AM EST 5:35 PM EST
Civil Twilight 6:38 AM EST 6:02 PM EST
Nautical Twilight 6:07 AM EST 6:33 PM EST
Astronomical Twilight 5:37 AM EST 7:03 PM EST
Moon No Moon Rise 12:58 PM EST (11/6)
Length of Visible Light 11h 24m
Length of Day
10h 30m
Waning Gibbous, 53% of the Moon is Illuminated
Nov 6
Waning Gibbous
Nov 6
Last Quarter
Nov 13
New
Nov 20
First Quarter
Nov 28
Full

Hourly Weather History & Observations

Time (EST) Temp. Windchill Dew Point Humidity Pressure Visibility Wind Dir Wind Speed Gust Speed Precip Events Conditions
12:53 AM 45.0 °F - 35.1 °F 68% 30.02 in 10.0 mi Calm Calm - N/A   Overcast
1:53 AM 46.0 °F - 36.0 °F 68% 30.00 in 10.0 mi Calm Calm - N/A   Overcast
2:53 AM 46.0 °F - 36.0 °F 68% 30.01 in 10.0 mi Calm Calm - N/A   Overcast
3:53 AM 46.9 °F - 36.0 °F 66% 30.01 in 10.0 mi Calm Calm - N/A   Overcast
4:53 AM 46.0 °F - 36.0 °F 68% 30.01 in 10.0 mi Calm Calm - N/A   Overcast
5:53 AM 45.0 °F - 37.9 °F 76% 30.02 in 10.0 mi Calm Calm - 0.00 in Rain Light Rain
6:53 AM 45.0 °F - 39.0 °F 80% 30.04 in 10.0 mi Calm Calm - 0.00 in Rain Light Rain
7:53 AM 44.1 °F - 41.0 °F 89% 30.06 in 9.0 mi Calm Calm - 0.02 in Rain Light Rain
8:53 AM 45.0 °F - 41.0 °F 86% 30.06 in 9.0 mi Calm Calm - 0.00 in Rain Light Rain
9:37 AM 44.6 °F - 42.8 °F 93% 30.04 in 8.0 mi Calm Calm - 0.01 in Rain Light Rain
9:53 AM 45.0 °F 42.6 °F 39.9 °F 82% 30.06 in 10.0 mi East 4.6 mph - 0.01 in Rain Light Rain
10:53 AM 48.0 °F - 41.0 °F 77% 30.06 in 10.0 mi Calm Calm - 0.00 in   Overcast
11:53 AM 50.0 °F - 41.0 °F 71% 30.04 in 10.0 mi Calm Calm - N/A   Overcast
12:53 PM 50.0 °F - 41.0 °F 71% 30.01 in 10.0 mi Calm Calm - N/A   Overcast
1:00 PM 50.0 °F - 41.0 °F 71% 30.00 in 10.0 mi SSW 3.5 mph - N/A   Overcast
1:50 PM 51.8 °F - 41.0 °F 67% 29.98 in 10.0 mi Calm Calm - N/A   Overcast
1:53 PM 51.1 °F - 41.0 °F 68% 29.99 in 10.0 mi Calm Calm - N/A   Overcast
2:53 PM 51.1 °F - 39.9 °F 66% 29.98 in 10.0 mi SSW 3.5 mph - N/A   Overcast
3:53 PM 51.1 °F - 39.9 °F 66% 29.98 in 10.0 mi Calm Calm - N/A   Overcast
4:53 PM 48.9 °F - 43.0 °F 80% 29.98 in 10.0 mi Calm Calm - 0.00 in   Overcast
5:53 PM 48.9 °F - 44.1 °F 83% 29.98 in 10.0 mi Calm Calm - N/A   Overcast
6:53 PM 48.0 °F - 43.0 °F 83% 29.98 in 10.0 mi East 3.5 mph - N/A   Overcast
7:30 PM 48.2 °F - 42.8 °F 82% 29.97 in 10.0 mi Calm Calm - N/A   Overcast
7:53 PM 48.0 °F - 43.0 °F 83% 29.99 in 10.0 mi Calm Calm - N/A   Overcast
8:49 PM 48.2 °F - 42.8 °F 82% 29.97 in 10.0 mi Calm Calm - N/A   Overcast
8:53 PM 48.0 °F - 43.0 °F 83% 29.99 in 10.0 mi Calm Calm - N/A   Overcast
9:53 PM 48.0 °F - 42.1 °F 80% 29.99 in 10.0 mi Calm Calm - N/A   Overcast
10:53 PM 46.9 °F - 43.0 °F 86% 29.96 in 9.0 mi Calm Calm - N/A   Overcast
11:53 PM 46.9 °F - 44.1 °F 90% 29.95 in 5.0 mi Calm Calm - 0.01 in Rain Light Rain